Location: Mountain View
(37.3861°N, 122.0839°W)
Time: 15:59:40
(UTC-08:00)

N. Korean satellite - Visible Passes

Search period start: 18 December 2018 00:00
Search period end: 28 December 2018 00:00
Orbit: 457 x 511 km, 97.2° (Epoch: 18 December)

Date Brightness Start Highest point End Pass type
(mag) Time Alt. Az. Time Alt. Az. Time Alt. Az.
18 Dec 8.6 05:54:19 10° NNE 05:57:36 32° E 06:00:55 10° SSE visible
18 Dec 7.7 18:01:17 10° S 18:04:33 43° W 18:07:52 10° NNW visible
19 Dec 9.8 05:30:38 10° NE 05:32:55 16° E 05:35:13 10° SE visible
19 Dec 6.3 17:36:33 10° SSE 17:39:57 77° ENE 17:43:25 10° N visible
20 Dec 6.6 06:38:17 10° N 06:41:52 58° WNW 06:45:29 10° SSW visible
20 Dec 10.0 18:48:03 10° WSW 18:49:01 11° W 18:50:00 10° WNW visible
21 Dec 7.2 06:13:41 10° NNE 06:17:19 62° E 06:20:58 10° S visible
21 Dec 9.1 18:21:29 10° SSW 18:24:16 23° W 18:27:05 10° NW visible
22 Dec 8.8 05:49:28 10° NE 05:52:41 28° E 05:55:54 10° SSE visible
22 Dec 7.4 17:56:16 10° S 17:59:36 52° W 18:02:59 10° NNW visible
23 Dec 9.9 05:25:58 10° ENE 05:27:58 14° E 05:29:58 10° SE visible
23 Dec 6.4 17:31:37 10° SSE 17:35:00 65° ENE 17:38:27 10° N visible
24 Dec 6.6 06:33:18 10° N 06:36:57 68° WNW 06:40:38 10° SSW visible
24 Dec 9.9 18:42:24 10° WSW 18:44:01 13° W 18:45:38 10° WNW visible
25 Dec 7.5 06:08:46 10° NNE 06:12:22 53° E 06:16:01 10° S visible
25 Dec 8.8 18:16:19 10° SSW 18:19:16 27° W 18:22:16 10° NW visible
26 Dec 9.1 05:44:37 10° NE 05:47:43 25° E 05:50:49 10° SSE visible
26 Dec 7.0 17:51:12 10° S 17:54:36 62° W 17:58:03 10° NNW visible
27 Dec 10.1 05:21:23 10° ENE 05:22:58 12° E 05:24:34 10° ESE visible
27 Dec 6.5 17:26:39 10° SSE 17:30:01 55° ENE 17:33:27 10° N visible
